FW0155 Weather Reports


Display with metric or nautical units.
time (UTC)temp
F
wind
direction
speed
MPH
gust
MPH
rain 1hr
in
rain 24hr
in
rain mn
in
humidity
%
barometer
mb
20260507114959 56 278 1.0 4.0 0.00 0.02 0.00 58 1017.2
20260507113956 56 283 1.0 4.0 0.00 0.03 0.00 59 1017.2
20260507112956 55 231 1.0 3.0 0.00 0.03 0.00 60 1017.2
20260507112440 55 167 0.0 2.0 0.00 0.04 0.00 62 1017.4
20260507110955 55 260 0.0 3.0 0.00 0.05 0.00 61 1017.6
20260507110446 55 263 1.0 4.0 0.00 0.07 0.00 61 1017.7
20260507104955 54 261 1.0 1.0 0.00 0.09 0.00 65 1017.5
20260507104428 53 244 0.0 2.0 0.00 0.09 0.00 64 1017.5
20260507102954 53 274 1.0 2.0 0.00 0.10 0.00 64 1017.6
20260507102440 53 264 1.0 3.0 0.00 0.12 0.00 65 1017.3
20260507100922 54 234 0.0 3.0 0.00 0.14 0.00 64 1017.4
20260507095922 53 246 0.0 3.0 0.00 0.15 0.00 64 1017.4
20260507093922 55 253 1.0 3.0 0.00 0.15 0.00 60 1017.5
20260507092922 54 226 1.0 2.0 0.00 0.15 0.00 61 1017.4
20260507091921 53 223 0.0 2.0 0.00 0.15 0.00 61 1017.4
20260507090920 53 249 1.0 2.0 0.00 0.15 0.00 61 1017.4
20260507085919 53 234 1.0 2.0 0.00 0.15 0.00 62 1017.2
20260507084850 53 236 0.0 2.0 0.00 0.15 0.00 62 1017.5
20260507083849 53 255 0.0 3.0 0.00 0.15 0.00 62 1017.3
20260507082848 54 234 0.0 1.0 0.00 0.15 0.00 61 1017.2
20260507081848 51 225 0.0 3.0 0.00 0.16 0.00 67 1017.2
20260507080817 51 247 0.0 3.0 0.00 0.17 0.00 66 1017.1
20260507075824 51 160 0.0 2.0 0.00 0.17 0.00 67 1017.1
20260507074818 50 242 0.0 1.0 0.00 0.18 0.00 69 1017.1
20260507073816 50 259 0.0 1.0 0.00 0.20 0.00 71 1017.1
20260507072748 50 276 0.0 1.0 0.00 0.21 0.00 72 1016.9
20260507071745 49 276 0.0 1.0 0.00 0.23 0.00 74 1016.8
20260507070747 49 276 1.0 2.0 0.00 0.23 0.00 73 1016.9
20260507065745 49 231 0.0 1.0 0.00 0.23 0.00 74 1016.9
20260507064746 49 232 0.0 1.0 0.00 0.23 0.00 75 1016.8
20260507063744 49 229 0.0 1.0 0.00 0.23 0.00 76 1016.8
20260507062743 49 228 0.0 1.0 0.00 0.24 0.00 76 1016.9
20260507061745 49 232 0.0 1.0 0.00 0.24 0.00 76 1016.7
20260507060744 49 286 0.0 1.0 0.00 0.25 0.00 77 1016.7
20260507060218 48 286 0.0 1.0 0.00 0.25 0.00 78 1016.4
20260507054742 47 286 0.0 1.0 0.00 0.25 0.00 82 1016.3
20260507053743 47 286 0.0 1.0 0.00 0.25 0.00 84 1016.3
20260507052741 46 286 0.0 0.0 0.00 0.25 0.00 86 1016.2
20260507051710 46 286 0.0 0.0 0.00 0.25 0.00 87 1016.2
20260507050710 46 286 0.0 0.0 0.00 0.25 0.00 87 1016.2
20260507045710 46 286 0.0 0.0 0.00 0.25 0.00 87 1016.0
20260507044710 46 286 0.0 0.0 0.00 0.25 0.00 87 1016.1
20260507043709 45 286 0.0 0.0 0.00 0.25 0.00 87 1016.0
20260507042710 45 286 0.0 0.0 0.00 0.25 0.00 87 1015.8
20260507042146 45 286 0.0 1.0 0.00 0.25 0.00 87 1016.0
20260507040638 46 286 0.0 0.0 0.00 0.25 0.00 86 1015.7
20260507035639 46 286 0.0 1.0 0.00 0.25 0.00 85 1015.7
20260507034637 46 286 0.0 1.0 0.00 0.25 0.00 84 1015.9
20260507033637 46 286 0.0 0.0 0.00 0.25 0.00 84 1015.7
20260507032636 46 286 0.0 0.0 0.00 0.25 0.00 84 1015.7
20260507031606 46 286 0.0 0.0 0.00 0.25 0.00 84 1015.6
20260507031049 46 286 0.0 0.0 0.00 0.25 0.00 84 1015.5
20260507025606 46 286 0.0 0.0 0.00 0.25 0.00 84 1015.4
20260507024604 46 286 0.0 0.0 0.00 0.25 0.00 84 1015.5
20260507024014 46 286 0.0 0.0 0.00 0.25 0.00 84 1015.6
20260507022534 46 286 0.0 0.0 0.00 0.25 0.00 84 1015.5
20260507021533 46 286 0.0 0.0 0.00 0.25 0.00 84 1015.9
20260507020534 46 286 0.0 0.0 0.00 0.25 0.00 84 1015.6
20260507015503 46 286 0.0 0.0 0.00 0.25 0.00 84 1015.6
20260507014502 46 286 0.0 0.0 0.00 0.25 0.00 84 1015.4
20260507013432 46 286 0.0 0.0 0.00 0.25 0.00 84 1015.3
20260507012432 46 286 0.0 0.0 0.00 0.25 0.00 84 1015.4
20260507011433 46 286 0.0 1.0 0.00 0.25 0.00 83 1015.6
20260507005904 46 286 0.0 0.0 0.00 0.25 0.00 83 1015.4
20260507004429 47 286 0.0 0.0 0.00 0.25 0.00 83 1015.3
20260507003429 47 286 0.0 0.0 0.00 0.25 0.00 82 1015.4
20260507002430 47 286 0.0 0.0 0.00 0.25 0.00 82 1015.4
20260507001428 47 286 0.0 0.0 0.00 0.25 0.00 82 1015.4
20260507000428 47 286 0.0 0.0 0.00 0.25 0.00 82 1015.4
20260506235428 47 286 0.0 1.0 0.00 0.25 0.00 82 1015.6
20260506234427 47 286 0.0 1.0 0.00 0.25 0.00 82 1015.6
20260506233427 47 286 0.0 1.0 0.00 0.25 0.00 81 1015.5
20260506232426 47 286 0.0 1.0 0.00 0.25 0.00 81 1015.6
20260506231358 47 286 0.0 1.0 0.00 0.25 0.00 81 1015.5
20260506230356 47 284 0.0 2.0 0.00 0.25 0.00 81 1015.5
20260506225842 47 280 0.0 1.0 0.00 0.25 0.25 81 1015.2
20260506224355 47 280 0.0 1.0 0.00 0.25 0.25 81 1015.4
20260506223324 47 280 0.0 1.0 0.00 0.25 0.25 81 1015.5
20260506222324 47 280 0.0 1.0 0.00 0.25 0.25 81 1015.5
20260506221324 47 280 0.0 1.0 0.00 0.25 0.25 81 1015.4
20260506220323 47 280 0.0 1.0 0.00 0.25 0.25 80 1015.3
20260506215253 47 279 0.0 1.0 0.00 0.25 0.25 80 1015.2
20260506214252 47 279 0.0 1.0 0.00 0.25 0.25 80 1015.2
20260506213252 47 279 0.0 1.0 0.00 0.25 0.25 80 1015.2
20260506212251 47 279 0.0 2.0 0.00 0.25 0.25 79 1015.0
20260506211252 47 263 0.0 1.0 0.00 0.25 0.25 79 1015.0
20260506210252 48 257 0.0 1.0 0.00 0.25 0.25 79 1015.1
20260506205251 48 279 0.0 1.0 0.00 0.25 0.25 79 1014.8
20260506204729 48 275 0.0 1.0 0.00 0.25 0.25 79 1015.1
20260506203251 48 275 0.0 3.0 0.00 0.25 0.25 78 1015.4
20260506202249 48 277 0.0 2.0 0.00 0.25 0.25 78 1015.0
20260506201249 48 279 0.0 4.0 0.00 0.25 0.25 79 1015.0
20260506200250 48 275 0.0 3.0 0.00 0.25 0.25 79 1014.9
20260506195250 48 246 0.0 2.0 0.00 0.25 0.25 79 1014.8
20260506194247 48 270 0.0 2.0 0.00 0.25 0.25 79 1014.5
20260506193248 48 294 1.0 2.0 0.00 0.25 0.25 78 1014.6
20260506191246 49 259 0.0 4.0 0.00 0.25 0.25 79 1014.6
20260506190246 49 264 0.0 2.0 0.00 0.25 0.25 78 1014.4
20260506185248 49 268 1.0 3.0 0.00 0.25 0.25 78 1014.2
20260506184245 49 257 1.0 3.0 0.00 0.25 0.25 78 1014.1
20260506183244 49 274 0.0 2.0 0.00 0.25 0.25 78 1013.9
20260506182215 49 255 0.0 4.0 0.00 0.25 0.25 78 1014.1
20260506181214 50 189 1.0 6.0 0.00 0.25 0.25 78 1013.9
20260506180214 50 264 1.0 3.0 0.00 0.25 0.25 78 1013.8
20260506175213 50 235 0.0 4.0 0.00 0.25 0.25 78 1013.7
20260506174213 50 244 0.0 3.0 0.00 0.25 0.25 78 1013.6
20260506173655 51 273 1.0 4.0 0.00 0.25 0.25 78 1013.5
20260506172212 51 264 1.0 6.0 0.00 0.25 0.25 78 1013.4
20260506171212 51 254 0.0 3.0 0.00 0.25 0.25 79 1013.3
20260506170211 51 270 1.0 3.0 0.00 0.25 0.25 77 1013.4
20260506165213 51 269 1.0 3.0 0.00 0.25 0.25 79 1013.2
20260506164210 51 259 0.0 3.0 0.00 0.25 0.25 80 1013.3
20260506163210 51 263 0.0 2.0 0.00 0.25 0.25 82 1013.2
20260506162650 50 272 0.0 3.0 0.00 0.25 0.25 82 1013.3
20260506161209 50 285 0.0 4.0 0.00 0.25 0.25 82 1013.0
20260506160209 50 309 4.0 4.0 0.00 0.25 0.25 85 1013.3
20260506155208 50 282 0.0 2.0 0.00 0.25 0.25 87 1013.2
20260506154210 50 286 0.0 2.0 0.00 0.25 0.25 88 1013.1
20260506153641 50 300 1.0 2.0 0.00 0.25 0.25 87 1013.1
20260506152209 50 276 0.0 2.0 0.00 0.25 0.25 86 1013.2
20260506151210 50 288 1.0 2.0 0.00 0.25 0.25 86 1013.1
20260506150207 50 277 0.0 1.0 0.00 0.25 0.25 85 1013.1
20260506145208 50 287 0.0 2.0 0.00 0.25 0.25 85 1013.0
20260506144206 51 269 0.0 2.0 0.00 0.25 0.25 86 1013.0
20260506143205 51 256 0.0 2.0 0.00 0.25 0.25 84 1013.0
20260506142206 51 268 1.0 2.0 0.00 0.25 0.25 83 1013.0
20260506141207 51 269 0.0 2.0 0.00 0.25 0.25 83 1012.9
20260506140206 51 289 1.0 2.0 0.00 0.25 0.25 83 1013.0
20260506135204 51 270 0.0 2.0 0.01 0.25 0.25 84 1013.1
20260506133203 51 291 1.0 3.0 0.02 0.25 0.25 85 1013.0
20260506132202 51 286 0.0 3.0 0.02 0.25 0.25 86 1013.1
20260506131202 50 275 0.0 2.0 0.02 0.25 0.25 87 1013.1
20260506130202 50 286 0.0 2.0 0.02 0.25 0.25 86 1013.1
20260506125202 50 282 0.0 2.0 0.01 0.24 0.24 85 1013.0
20260506124646 51 315 0.0 3.0 0.00 0.23 0.23 82 1012.9
20260506123201 51 296 0.0 2.0 0.01 0.23 0.23 83 1012.9
20260506122200 51 94 0.0 3.0 0.02 0.23 0.23 84 1013.0
20260506121642 51 284 0.0 1.0 0.02 0.23 0.23 86 1013.1
20260506120200 51 284 0.0 2.0 0.05 0.23 0.23 86 1012.9
20260506115642 50 263 0.0 2.0 0.06 0.23 0.23 88 1013.0